SCP
0 0 0 0 0 0 0 0 0 0 0 0 0 0 0 0 0 0 0 0 0 0 0 0 0 0 0 0 0 0 0 0 0 0 0 0 0 0 0 0 0 0 0 0 -0
0 0 0 0 0 0 0 0 0 0 0 0 0 0 0 0 0 0 0 0 0 0 0 0 0 0 0 0 0 0 0 0 0 0 0 0 0 0 0 0 0 0 0 0 -1
0 0 0 0 0 0 0 0 0 0 0 0 0 0 0 0 -0 0 0 -0 0 0 0 0 0 0 0 0 0 0 0 0 0 0 0 0 0 0 0 0 0 0 0 0 0
0 0 0 0 0 0 0 0 0 0 0 0 0 0 0 0 0 0 0 0 0 0 0 0 0 0 0 0 0 0 0 0 0 0 0 0 0 0 0 0 0 0 0 0 1
0 0 0 0 0 0 0 0 0 0 0 0 0 0 0 0 0 0 0 0 0 0 0 0 0 0 0 0 0 0 0 0 0 0 0 0 0 0 0 0 0 0 0 0 0
0 0 0 0 0 0 0 0 0 0 0 0 0 0 0 0 0 0 0 0 0 0 0 0 0 0 0 0 0 0 0 0 0 0 0 0 0 0 0 0 0 0 0 0 0
0 0 0 0 0 0 0 0 0 0 0 0 0 0 0 0 0 0 0 0 0 0 0 0 0 0 0 0 0 0 0 0 0 0 0 0 0 0 0 0 0 0 0 0 0
0 0 0 0 0 0 0 0 0 0 -0 -0 0 0 0 0 0 0 0 0 0 0 0 0 0 0 0 0 0 0 0 0 0 0 0 0 0 0 0 0 0 0 0 0 0
0 0 0 0 0 0 0 0 0 -0 -0 0 0 0 0 0 -0 0 -0 0 0 0 0 0 0 0 0 0 0 0 0 0 0 0 0 0 0 0 0 0 0 0 0 0 0
0 0 0 0 0 0 0 -0 -0 -0 0 0 0 0 0 0 0 -0 0 -0 0 0 0 0 0 0 0 0 0 0 0 0 0 0 0 0 0 0 0 0 0 0 0 0 0
0 0 0 0 0 0 0 -0 -0 -0 0 0 0 0 0 0 0 0 0 0 0 0 0 0 0 0 0 0 0 0 0 0 0 0 0 0 0 0 0 0 0 0 0 0 0
0 0 0 0 0 -0 0 0 0 0 0 0 0 0 0 0 0 -0 0 0 0 0 0 0 0 0 0 0 0 0 0 0 0 0 0 0 0 0 0 0 0 0 0 0 0
0 0 0 0 0 0 0 0 0 0 0 0 0 0 0 0 -0 0 0 0 0 0 0 0 0 0 0 0 0 0 0 0 0 0 0 0 0 0 0 0 0 0 0 0 0
0 0 0 0 0 0 0 0 0 0 0 0 0 0 0 -0 0 0 0 0 0 0 0 0 0 0 0 0 0 0 0 0 0 0 0 0 0 0 0 0 0 0 0 0 0
0 0 0 0 0 0 0 0 0 0 0 0 0 0 -0 0 -0 0 0 0 0 0 0 0 0 0 0 0 0 0 0 0 0 0 0 0 0 0 0 0 0 0 0 0 0
0 0 0 0 0 0 0 0 0 0 0 0 0 0 -0 -0 -0 -0 -0 0 0 0 0 0 0 0 0 0 0 0 0 0 0 0 0 0 0 0 0 0 0 0 0 0 0
0 0 0 0 0 0 0 0 0 0 0 0 0 -0 -0 0 0 -0 0 -0 0 0 -0 0 0 0 0 0 0 0 0 0 0 0 0 0 0 0 0 0 0 0 0 0 0
0 0 0 0 0 0 0 0 0 0 0 0 0 -0 -0 0 -0 -0 0 0 -0 0 0 0 0 0 0 0 0 0 0 0 0 0 0 0 0 0 0 0 0 0 0 0 0
0 0 0 0 0 0 0 0 0 0 0 0 0 0 0 -0 -0 0 0 0 0 -0 0 0 0 0 0 0 0 0 0 0 0 0 0 0 0 0 0 0 0 0 0 0 0
0 0 0 0 0 0 0 0 0 0 0 0 0 0 0 -0 -0 -0 0 0 0 -0 -0 -0 0 0 0 0 0 0 0 0 0 0 0 0 0 0 0 0 0 0 0 0 0
0 0 0 0 0 0 0 0 0 0 0 0 0 0 0 -0 -0 0 0 0 0 -0 -0 0 -0 0 0 0 0 0 0 0 0 0 0 0 0 0 0 0 0 0 0 0 0
0 0 0 0 0 0 -0 -0 0 0 0 0 0 0 0 -0 -0 0 0 0 0 0 -0 0 0 0 0 0 0 0 0 0 0 0 0 0 0 0 0 0 0 0 0 0 0
0 0 0 0 -0 -0 0 0 0 0 0 0 0 0 0 0 0 0 0 0 0 0 0 0 0 0 0 0 0 0 0 0 0 0 0 0 0 0 0 0 0 0 0 0 0
0 0 0 0 0 -0 -0 0 0 0 0 0 0 0 0 0 -0 -0 -0 0 0 0 0 0 0 0 0 0 0 0 0 0 0 0 0 0 0 0 0 0 0 0 0 0 0
0 0 0 0 0 0 -0 -0 0 0 0 0 0 0 -0 0 -0 0 -0 -0 -0 -0 0 0 0 0 0 0 0 0 -0 0 0 0 0 0 0 0 0 0 0 0 0 0 0
0 0 0 0 0 0 -0 0 0 -0 0 0 0 -0 -0 0 -0 -0 -0 0 -0 0 0 0 0 0 0 0 0 0 0 0 0 0 0 0 0 0 0 0 0 0 0 0 0
0 0 0 0 0 -0 -0 0 -0 -0 0 0 -0 -0 0 -0 -0 -0 -0 -0 0 0 0 0 0 0 0 0 0 0 0 0 0 0 0 0 0 0 0 0 0 0 0 0 0
Wind_Speed_500mb
45 45 45 45 46 45 46 46 46 45 45 46 48 48 46 50 50 51 62 52 39 29 42 37 28 31 46 27 22 17 14 24 25 20 12 10 13 13 10 19 11 6 11 19 25
47 48 49 50 51 52 52 53 52 49 48 49 50 48 50 49 51 63 56 53 43 43 49 45 39 40 26 26 20 18 18 27 15 25 11 16 24 15 10 15 8 18 19 16 6
50 50 51 52 52 54 54 54 55 51 49 50 51 51 46 43 48 17 8 5 12 35 43 47 35 35 24 23 27 22 27 18 19 30 35 35 21 13 16 21 18 21 18 15 10
50 52 54 56 57 57 56 56 56 55 55 55 52 49 31 25 17 9 14 8 7 4 41 47 32 22 20 24 36 15 25 28 34 29 23 23 12 10 20 19 18 21 20 17 19
54 55 56 57 57 58 59 59 61 59 56 57 55 43 23 19 58 39 28 30 19 20 26 44 48 45 29 23 21 32 18 38 47 30 35 17 15 19 24 19 34 38 41 38 30
59 60 61 64 65 66 66 65 66 69 68 63 57 32 32 41 63 49 46 63 63 40 34 41 30 39 29 18 39 16 44 36 27 40 34 34 40 36 22 12 22 22 27 42 38
62 62 62 63 64 66 70 71 67 68 72 72 55 37 52 76 57 49 27 22 16 28 37 47 39 39 20 9 40 19 14 21 36 45 23 17 33 27 34 46 48 46 41 39 39
66 67 70 72 73 76 80 85 85 74 64 52 45 39 43 41 66 73 67 56 45 31 39 37 37 24 20 6 7 33 24 30 25 19 19 35 26 5 39 45 48 43 36 30 31
71 72 76 79 80 81 84 81 74 60 41 36 27 36 26 25 37 25 34 57 52 64 43 19 40 25 30 22 18 27 22 34 20 37 20 30 12 18 45 34 36 39 35 37 36
72 75 76 78 81 78 63 68 51 43 24 7 7 17 35 23 21 14 6 25 15 39 35 19 23 26 28 34 43 31 39 18 28 30 47 33 25 18 9 24 47 46 31 34 37
69 72 77 79 75 46 60 69 37 13 25 35 42 43 62 42 19 9 9 32 18 31 36 37 26 50 65 54 34 26 22 39 23 13 34 37 29 33 27 16 26 31 20 24 36
69 71 74 72 49 44 51 32 31 28 37 65 76 82 93 63 48 55 19 20 21 18 43 23 56 51 39 45 41 17 26 26 18 24 27 23 30 33 25 22 26 31 30 32 38
70 70 71 55 34 50 45 36 42 35 15 51 24 24 23 19 39 52 54 35 22 30 54 43 24 50 43 41 48 45 25 23 21 19 10 20 18 22 19 25 22 30 32 31 37
71 70 62 45 30 56 36 43 41 40 9 14 5 1 4 2 11 20 32 52 38 42 44 34 47 40 51 49 45 47 41 21 19 23 14 12 8 22 31 28 21 34 29 26 29
73 72 51 35 53 47 54 47 39 14 10 15 3 3 12 11 36 9 10 40 46 43 31 33 32 48 49 53 48 27 39 33 20 16 7 13 10 9 9 25 22 7 4 9 18
79 71 35 40 49 53 56 38 16 4 10 21 11 30 40 54 36 15 4 30 31 47 48 41 28 41 49 46 48 29 41 30 14 9 17 21 17 14 13 9 11 8 5 2 1
84 45 28 49 51 60 39 11 4 5 23 16 41 43 52 26 19 7 8 5 12 17 42 46 39 41 38 44 44 44 50 20 19 16 14 27 21 3 5 1 4 7 8 10 13
82 15 41 60 54 44 30 3 6 15 24 38 35 55 16 21 18 2 15 4 24 13 29 28 35 47 41 49 38 54 50 22 29 26 24 20 20 9 4 7 12 17 20 23 28
74 4 36 62 37 39 11 7 8 12 21 23 35 17 20 22 20 15 9 7 14 28 12 29 31 48 42 48 45 56 49 24 10 9 18 16 6 6 8 13 18 22 27 30 31
62 9 49 47 25 24 8 9 8 14 20 13 8 7 20 27 23 22 10 4 7 29 25 28 23 55 34 49 48 57 47 20 13 22 23 16 14 15 21 19 21 24 31 36 40
38 8 38 40 20 17 10 15 25 49 46 9 11 10 14 14 20 14 10 5 9 11 5 3 19 43 35 25 54 40 42 21 11 4 12 17 11 1 25 27 29 28 34 40 47
31 5 38 57 20 14 16 26 46 29 58 9 8 7 8 14 9 11 14 15 14 10 8 8 3 26 21 11 46 51 50 36 15 12 4 11 7 4 24 26 36 40 46 47 52
31 12 26 42 13 21 26 23 27 38 34 13 9 4 9 8 11 16 21 30 31 9 9 7 5 12 21 10 8 51 53 35 13 7 12 13 12 13 29 28 38 49 51 51 54
19 11 15 16 25 21 25 23 33 49 24 30 12 14 25 8 7 10 21 16 20 14 22 9 6 3 6 18 20 40 50 47 22 9 15 9 28 24 28 33 37 47 50 55 53
21 6 4 13 21 31 33 21 43 29 13 22 7 30 34 8 13 15 11 16 15 23 8 2 15 18 13 46 42 29 49 49 26 17 9 30 44 35 34 38 47 55 55 54 53
16 13 12 23 33 31 19 24 35 49 15 17 18 44 31 12 11 27 23 9 8 14 17 10 6 10 23 52 40 33 34 40 29 22 26 41 32 31 44 54 53 58 57 52 47
34 26 16 15 15 20 15 29 46 43 23 32 42 36 22 19 43 53 38 28 16 12 10 9 4 21 9 44 38 21 25 22 14 7 41 33 28 46 39 39 49 56 54 51 44
Wind_Direction_500mb
348 346 342 340 336 335 331 329 329 326 323 318 316 312 308 307 306 298 284 284 275 233 233 229 206 195 185 183 179 174 225 233 224 199 228 192 202 220 221 230 218 249 278 292 294
346 344 341 339 337 334 332 330 327 326 323 319 314 310 309 309 307 296 295 275 255 233 226 206 190 175 171 186 182 192 223 223 215 222 225 210 220 219 225 216 236 279 289 319 288
345 344 341 338 336 335 332 328 325 324 319 313 310 311 312 317 318 277 281 162 105 210 211 191 182 166 182 177 183 201 228 212 215 220 228 247 242 227 227 245 244 261 296 296 253
348 345 342 340 338 334 331 327 323 321 316 310 306 305 309 307 284 263 218 195 98 136 201 194 183 187 191 197 196 214 222 210 224 215 221 240 237 214 219 247 264 267 275 266 240
348 345 340 336 334 331 327 323 319 315 309 305 301 295 289 240 251 254 242 238 233 256 205 192 192 200 204 202 196 222 208 210 227 223 221 231 224 260 255 256 271 272 272 261 250
343 342 339 335 332 328 324 320 317 313 310 303 295 280 251 244 277 279 251 246 248 244 221 200 208 207 226 218 206 211 217 222 225 230 237 247 253 246 259 214 257 259 261 262 249
343 342 338 334 330 328 325 321 316 311 304 295 282 257 247 242 265 269 246 234 217 217 218 223 218 194 213 215 230 206 193 221 231 237 237 197 250 227 236 249 261 263 262 255 252
345 343 340 337 334 332 328 324 323 316 304 284 270 243 249 256 273 259 252 240 223 219 216 221 207 216 209 223 116 213 234 229 190 183 217 197 250 239 229 232 237 248 250 241 237
346 343 340 337 334 335 329 331 331 321 307 283 243 211 261 267 254 276 243 234 244 222 210 190 195 207 195 200 207 197 209 217 211 208 191 196 221 256 221 212 235 247 249 242 244
345 344 340 336 334 335 339 343 344 330 337 19 218 189 252 245 261 250 223 197 186 191 204 205 188 198 209 197 211 198 211 187 192 192 213 200 215 231 147 206 232 247 252 242 238
346 343 338 334 337 346 346 349 352 339 307 260 258 230 272 280 294 249 221 158 168 169 185 189 192 205 203 210 227 218 193 205 191 175 194 205 205 234 248 219 237 247 233 225 228
345 342 336 334 347 355 348 358 343 309 298 293 270 261 261 267 275 246 193 167 188 181 187 179 220 214 211 209 215 197 200 203 193 196 195 190 216 229 222 227 228 237 240 230 230
345 343 339 340 349 350 351 341 337 327 267 303 301 268 269 208 229 266 221 215 204 191 186 199 204 213 205 200 205 216 203 180 156 153 197 166 209 214 213 224 220 239 235 234 230
345 345 340 339 350 345 351 329 324 328 302 282 289 64 220 236 237 271 227 204 215 216 196 217 225 187 193 205 197 206 203 184 173 182 196 213 210 207 217 203 207 224 226 226 219
345 343 336 338 334 341 330 327 317 316 304 353 227 277 316 282 294 111 100 201 214 205 192 209 202 199 199 208 199 205 180 191 187 203 198 182 220 151 177 202 205 179 155 229 231
345 343 336 338 338 330 327 330 319 226 270 314 307 316 318 315 302 156 230 219 223 210 214 223 207 187 201 197 188 169 166 179 163 186 235 195 212 189 180 150 144 121 78 36 104
348 352 11 354 337 332 334 352 281 287 331 310 326 326 320 304 300 142 275 261 174 154 206 203 213 199 193 184 183 173 158 156 180 198 216 183 192 124 121 12 200 150 106 67 68
351 349 7 352 336 340 341 278 343 325 320 319 311 311 288 321 334 100 317 286 219 182 179 183 203 214 183 188 177 191 178 173 176 185 170 176 195 157 70 77 109 109 97 82 76
351 50 1 352 344 345 354 27 324 323 306 305 312 311 330 332 330 338 316 279 183 212 148 188 205 188 191 179 168 184 192 181 137 156 160 160 152 179 137 109 107 105 96 89 91
353 15 8 355 4 4 23 331 298 290 298 265 287 304 314 333 322 333 331 286 267 221 253 188 190 180 183 181 193 181 175 177 178 165 169 170 175 157 168 144 124 114 107 102 102
360 15 2 9 17 33 33 317 309 320 334 294 301 295 298 321 318 309 266 240 250 238 161 3 201 172 170 191 183 180 185 200 122 190 165 156 156 69 155 149 131 119 109 109 103
359 341 358 10 30 7 348 328 306 316 335 303 277 272 278 301 282 302 293 322 157 271 189 244 35 156 177 250 193 178 187 181 173 157 82 157 122 74 134 131 126 113 113 109 104
344 307 359 27 22 354 338 324 341 330 333 330 297 261 294 283 303 307 325 330 176 170 189 213 148 137 147 72 357 181 186 194 126 152 170 147 148 132 123 110 115 119 117 112 108
359 348 348 24 352 340 330 337 340 332 312 325 284 301 330 301 251 307 321 341 17 353 290 304 152 116 182 144 147 170 185 179 187 190 156 113 139 150 134 126 127 123 120 118 112
21 21 346 318 336 330 327 328 327 346 311 315 280 333 334 297 327 344 313 319 306 1 7 287 160 189 231 143 161 164 179 181 181 152 175 151 154 158 147 140 137 128 125 121 113
10 351 300 296 301 324 341 330 333 328 314 303 312 325 317 308 326 309 317 320 320 339 351 346 127 158 141 152 172 169 173 189 186 94 95 136 124 138 126 130 136 134 131 122 118
353 339 300 293 329 326 325 324 322 325 310 304 312 315 307 323 310 298 290 270 267 323 350 284 205 129 103 155 152 177 169 144 125 123 144 146 150 131 136 139 143 139 131 128 126
Wind_Speed_850mb
45 45 45 45 46 45 46 46 46 45 45 46 48 48 46 50 50 51 62 52 39 29 42 37 28 31 46 27 22 17 14 24 25 20 12 10 13 13 10 19 11 6 11 19 25
47 48 49 50 51 52 52 53 52 49 48 49 50 48 50 49 51 63 56 53 43 43 49 45 39 40 26 26 20 18 18 27 15 25 11 16 24 15 10 15 8 18 19 16 6
50 50 51 52 52 54 54 54 55 51 49 50 51 51 46 43 48 17 8 5 12 35 43 47 35 35 24 23 27 22 27 18 19 30 35 35 21 13 16 21 18 21 18 15 10
50 52 54 56 57 57 56 56 56 55 55 55 52 49 31 25 17 9 14 8 7 4 41 47 32 22 20 24 36 15 25 28 34 29 23 23 12 10 20 19 18 21 20 17 19
54 55 56 57 57 58 59 59 61 59 56 57 55 43 23 19 58 39 28 30 19 20 26 44 48 45 29 23 21 32 18 38 47 30 35 17 15 19 24 19 34 38 41 38 30
59 60 61 64 65 66 66 65 66 69 68 63 57 32 32 41 63 49 46 63 63 40 34 41 30 39 29 18 39 16 44 36 27 40 34 34 40 36 22 12 22 22 27 42 38
62 62 62 63 64 66 70 71 67 68 72 72 55 37 52 76 57 49 27 22 16 28 37 47 39 39 20 9 40 19 14 21 36 45 23 17 33 27 34 46 48 46 41 39 39
66 67 70 72 73 76 80 85 85 74 64 52 45 39 43 41 66 73 67 56 45 31 39 37 37 24 20 6 7 33 24 30 25 19 19 35 26 5 39 45 48 43 36 30 31
71 72 76 79 80 81 84 81 74 60 41 36 27 36 26 25 37 25 34 57 52 64 43 19 40 25 30 22 18 27 22 34 20 37 20 30 12 18 45 34 36 39 35 37 36
72 75 76 78 81 78 63 68 51 43 24 7 7 17 35 23 21 14 6 25 15 39 35 19 23 26 28 34 43 31 39 18 28 30 47 33 25 18 9 24 47 46 31 34 37
69 72 77 79 75 46 60 69 37 13 25 35 42 43 62 42 19 9 9 32 18 31 36 37 26 50 65 54 34 26 22 39 23 13 34 37 29 33 27 16 26 31 20 24 36
69 71 74 72 49 44 51 32 31 28 37 65 76 82 93 63 48 55 19 20 21 18 43 23 56 51 39 45 41 17 26 26 18 24 27 23 30 33 25 22 26 31 30 32 38
70 70 71 55 34 50 45 36 42 35 15 51 24 24 23 19 39 52 54 35 22 30 54 43 24 50 43 41 48 45 25 23 21 19 10 20 18 22 19 25 22 30 32 31 37
71 70 62 45 30 56 36 43 41 40 9 14 5 1 4 2 11 20 32 52 38 42 44 34 47 40 51 49 45 47 41 21 19 23 14 12 8 22 31 28 21 34 29 26 29
73 72 51 35 53 47 54 47 39 14 10 15 3 3 12 11 36 9 10 40 46 43 31 33 32 48 49 53 48 27 39 33 20 16 7 13 10 9 9 25 22 7 4 9 18
79 71 35 40 49 53 56 38 16 4 10 21 11 30 40 54 36 15 4 30 31 47 48 41 28 41 49 46 48 29 41 30 14 9 17 21 17 14 13 9 11 8 5 2 1
84 45 28 49 51 60 39 11 4 5 23 16 41 43 52 26 19 7 8 5 12 17 42 46 39 41 38 44 44 44 50 20 19 16 14 27 21 3 5 1 4 7 8 10 13
82 15 41 60 54 44 30 3 6 15 24 38 35 55 16 21 18 2 15 4 24 13 29 28 35 47 41 49 38 54 50 22 29 26 24 20 20 9 4 7 12 17 20 23 28
74 4 36 62 37 39 11 7 8 12 21 23 35 17 20 22 20 15 9 7 14 28 12 29 31 48 42 48 45 56 49 24 10 9 18 16 6 6 8 13 18 22 27 30 31
62 9 49 47 25 24 8 9 8 14 20 13 8 7 20 27 23 22 10 4 7 29 25 28 23 55 34 49 48 57 47 20 13 22 23 16 14 15 21 19 21 24 31 36 40
38 8 38 40 20 17 10 15 25 49 46 9 11 10 14 14 20 14 10 5 9 11 5 3 19 43 35 25 54 40 42 21 11 4 12 17 11 1 25 27 29 28 34 40 47
31 5 38 57 20 14 16 26 46 29 58 9 8 7 8 14 9 11 14 15 14 10 8 8 3 26 21 11 46 51 50 36 15 12 4 11 7 4 24 26 36 40 46 47 52
31 12 26 42 13 21 26 23 27 38 34 13 9 4 9 8 11 16 21 30 31 9 9 7 5 12 21 10 8 51 53 35 13 7 12 13 12 13 29 28 38 49 51 51 54
19 11 15 16 25 21 25 23 33 49 24 30 12 14 25 8 7 10 21 16 20 14 22 9 6 3 6 18 20 40 50 47 22 9 15 9 28 24 28 33 37 47 50 55 53
21 6 4 13 21 31 33 21 43 29 13 22 7 30 34 8 13 15 11 16 15 23 8 2 15 18 13 46 42 29 49 49 26 17 9 30 44 35 34 38 47 55 55 54 53
16 13 12 23 33 31 19 24 35 49 15 17 18 44 31 12 11 27 23 9 8 14 17 10 6 10 23 52 40 33 34 40 29 22 26 41 32 31 44 54 53 58 57 52 47
34 26 16 15 15 20 15 29 46 43 23 32 42 36 22 19 43 53 38 28 16 12 10 9 4 21 9 44 38 21 25 22 14 7 41 33 28 46 39 39 49 56 54 51 44
Wind_Direction_850mb
348 346 342 340 336 335 331 329 329 326 323 318 316 312 308 307 306 298 284 284 275 233 233 229 206 195 185 183 179 174 225 233 224 199 228 192 202 220 221 230 218 249 278 292 294
346 344 341 339 337 334 332 330 327 326 323 319 314 310 309 309 307 296 295 275 255 233 226 206 190 175 171 186 182 192 223 223 215 222 225 210 220 219 225 216 236 279 289 319 288
345 344 341 338 336 335 332 328 325 324 319 313 310 311 312 317 318 277 281 162 105 210 211 191 182 166 182 177 183 201 228 212 215 220 228 247 242 227 227 245 244 261 296 296 253
348 345 342 340 338 334 331 327 323 321 316 310 306 305 309 307 284 263 218 195 98 136 201 194 183 187 191 197 196 214 222 210 224 215 221 240 237 214 219 247 264 267 275 266 240
348 345 340 336 334 331 327 323 319 315 309 305 301 295 289 240 251 254 242 238 233 256 205 192 192 200 204 202 196 222 208 210 227 223 221 231 224 260 255 256 271 272 272 261 250
343 342 339 335 332 328 324 320 317 313 310 303 295 280 251 244 277 279 251 246 248 244 221 200 208 207 226 218 206 211 217 222 225 230 237 247 253 246 259 214 257 259 261 262 249
343 342 338 334 330 328 325 321 316 311 304 295 282 257 247 242 265 269 246 234 217 217 218 223 218 194 213 215 230 206 193 221 231 237 237 197 250 227 236 249 261 263 262 255 252
345 343 340 337 334 332 328 324 323 316 304 284 270 243 249 256 273 259 252 240 223 219 216 221 207 216 209 223 116 213 234 229 190 183 217 197 250 239 229 232 237 248 250 241 237
346 343 340 337 334 335 329 331 331 321 307 283 243 211 261 267 254 276 243 234 244 222 210 190 195 207 195 200 207 197 209 217 211 208 191 196 221 256 221 212 235 247 249 242 244
345 344 340 336 334 335 339 343 344 330 337 19 218 189 252 245 261 250 223 197 186 191 204 205 188 198 209 197 211 198 211 187 192 192 213 200 215 231 147 206 232 247 252 242 238
346 343 338 334 337 346 346 349 352 339 307 260 258 230 272 280 294 249 221 158 168 169 185 189 192 205 203 210 227 218 193 205 191 175 194 205 205 234 248 219 237 247 233 225 228
345 342 336 334 347 355 348 358 343 309 298 293 270 261 261 267 275 246 193 167 188 181 187 179 220 214 211 209 215 197 200 203 193 196 195 190 216 229 222 227 228 237 240 230 230
345 343 339 340 349 350 351 341 337 327 267 303 301 268 269 208 229 266 221 215 204 191 186 199 204 213 205 200 205 216 203 180 156 153 197 166 209 214 213 224 220 239 235 234 230
345 345 340 339 350 345 351 329 324 328 302 282 289 64 220 236 237 271 227 204 215 216 196 217 225 187 193 205 197 206 203 184 173 182 196 213 210 207 217 203 207 224 226 226 219
345 343 336 338 334 341 330 327 317 316 304 353 227 277 316 282 294 111 100 201 214 205 192 209 202 199 199 208 199 205 180 191 187 203 198 182 220 151 177 202 205 179 155 229 231
345 343 336 338 338 330 327 330 319 226 270 314 307 316 318 315 302 156 230 219 223 210 214 223 207 187 201 197 188 169 166 179 163 186 235 195 212 189 180 150 144 121 78 36 104
348 352 11 354 337 332 334 352 281 287 331 310 326 326 320 304 300 142 275 261 174 154 206 203 213 199 193 184 183 173 158 156 180 198 216 183 192 124 121 12 200 150 106 67 68
351 349 7 352 336 340 341 278 343 325 320 319 311 311 288 321 334 100 317 286 219 182 179 183 203 214 183 188 177 191 178 173 176 185 170 176 195 157 70 77 109 109 97 82 76
351 50 1 352 344 345 354 27 324 323 306 305 312 311 330 332 330 338 316 279 183 212 148 188 205 188 191 179 168 184 192 181 137 156 160 160 152 179 137 109 107 105 96 89 91
353 15 8 355 4 4 23 331 298 290 298 265 287 304 314 333 322 333 331 286 267 221 253 188 190 180 183 181 193 181 175 177 178 165 169 170 175 157 168 144 124 114 107 102 102
360 15 2 9 17 33 33 317 309 320 334 294 301 295 298 321 318 309 266 240 250 238 161 3 201 172 170 191 183 180 185 200 122 190 165 156 156 69 155 149 131 119 109 109 103
359 341 358 10 30 7 348 328 306 316 335 303 277 272 278 301 282 302 293 322 157 271 189 244 35 156 177 250 193 178 187 181 173 157 82 157 122 74 134 131 126 113 113 109 104
344 307 359 27 22 354 338 324 341 330 333 330 297 261 294 283 303 307 325 330 176 170 189 213 148 137 147 72 357 181 186 194 126 152 170 147 148 132 123 110 115 119 117 112 108
359 348 348 24 352 340 330 337 340 332 312 325 284 301 330 301 251 307 321 341 17 353 290 304 152 116 182 144 147 170 185 179 187 190 156 113 139 150 134 126 127 123 120 118 112
21 21 346 318 336 330 327 328 327 346 311 315 280 333 334 297 327 344 313 319 306 1 7 287 160 189 231 143 161 164 179 181 181 152 175 151 154 158 147 140 137 128 125 121 113
10 351 300 296 301 324 341 330 333 328 314 303 312 325 317 308 326 309 317 320 320 339 351 346 127 158 141 152 172 169 173 189 186 94 95 136 124 138 126 130 136 134 131 122 118
353 339 300 293 329 326 325 324 322 325 310 304 312 315 307 323 310 298 290 270 267 323 350 284 205 129 103 155 152 177 169 144 125 123 144 146 150 131 136 139 143 139 131 128 126